Morris, IL

3:55 PM CDT on May 26, 2018 (GMT -0500)
Morris

Weather History for KC09 - May, 2014

Change the Weather History Date:

Wednesday, May 14, 2014

  Actual Average (KARR) Record (KARR)
Temperature  
Mean Temperature 52 °F -  
Max Temperature 59 °F 68 °F 92 °F (2013)
Min Temperature 45 °F 47 °F 36 °F (2000)
Degree Days  
Heating Degree Days 13    
Growing Degree Days 2 (Base 50)    
Moisture  
Dew Point 44 °F    
Average Humidity 75    
Maximum Humidity 100    
Minimum Humidity 55    
Precipitation  
Precipitation 0.00 in - - ()
Sea Level Pressure  
Sea Level Pressure 30.11 in    
Wind  
Wind Speed 5 mph (North)    
Max Wind Speed 9 mph    
Max Gust Speed -    
Visibility 10 miles    
Events Rain    
Averages and records for this station are not official NWS values.
T = Trace of Precipitation, MM = Missing Value Source: NWS Daily Summary

Daily Weather History Graph

Daily Weather History Graph

Search for Another Location

Airport or City:

Astronomy

May. 14, 2014 Rise Set
Actual Time 5:35 AM CDT 8:04 PM CDT
Civil Twilight 5:04 AM CDT 8:36 PM CDT
Nautical Twilight 4:25 AM CDT 9:15 PM CDT
Astronomical Twilight 3:41 AM CDT 9:59 PM CDT
Moon 8:09 PM CDT (5/14) 5:34 AM CDT (5/14)
Length of Visible Light 15h 32m
Length of Day
14h 29m
Full, 100% of the Moon is Illuminated
May 14
Full
May 14
Full
May 21
Last Quarter
May 28
New
Jun 5
First Quarter

Hourly Weather History & Observations

Time (CDT) Temp. Windchill Dew Point Humidity Pressure Visibility Wind Dir Wind Speed Gust Speed Precip Events Conditions
12:15 AM 51.8 °F - 47.5 °F 85% 30.17 in 10.0 mi WNW 5.8 mph - N/A   Overcast
12:35 AM 51.8 °F - 47.5 °F 85% 30.17 in 10.0 mi WNW 5.8 mph - N/A   Overcast
12:55 AM 51.8 °F - 48.2 °F 88% 30.16 in 10.0 mi WNW 6.9 mph - N/A   Overcast
1:15 AM 51.4 °F - 47.5 °F 86% 30.17 in 10.0 mi WNW 6.9 mph - N/A   Overcast
1:35 AM 51.4 °F - 47.8 °F 87% 30.17 in 10.0 mi WNW 6.9 mph - N/A   Overcast
1:55 AM 51.4 °F - 47.5 °F 86% 30.16 in 10.0 mi NW 5.8 mph - N/A   Overcast
2:15 AM 51.3 °F - 47.3 °F 86% 30.16 in 10.0 mi NW 5.8 mph - N/A   Overcast
2:35 AM 50.9 °F - 47.3 °F 87% 30.16 in 10.0 mi Calm Calm - N/A   Mostly Cloudy
2:55 AM 50.9 °F - 46.8 °F 86% 30.15 in 10.0 mi NW 3.5 mph - N/A   Mostly Cloudy
3:15 AM 50.4 °F - 47.7 °F 90% 30.16 in 10.0 mi NW 3.5 mph - N/A   Scattered Clouds
3:35 AM 50.0 °F - 47.7 °F 92% 30.16 in 10.0 mi NW 3.5 mph - N/A   Mostly Cloudy
3:55 AM 50.0 °F - 47.5 °F 91% 30.16 in 10.0 mi Calm Calm - N/A   Scattered Clouds
4:15 AM 50.0 °F - 46.8 °F 89% 30.16 in 10.0 mi NW 3.5 mph - N/A   Mostly Cloudy
4:35 AM 50.0 °F - 47.1 °F 90% 30.16 in 10.0 mi NW 3.5 mph - N/A   Overcast
4:55 AM 50.0 °F - 46.8 °F 89% 30.17 in 10.0 mi NW 4.6 mph - N/A   Overcast
5:15 AM 50.0 °F - 46.6 °F 88% 30.17 in 10.0 mi NNW 3.5 mph - N/A   Overcast
5:35 AM 50.0 °F - 46.4 °F 87% 30.17 in 10.0 mi Calm Calm - N/A   Overcast
5:55 AM 49.6 °F - 46.0 °F 87% 30.17 in 10.0 mi NNW 3.5 mph - N/A   Mostly Cloudy
6:15 AM 49.5 °F - 45.9 °F 87% 30.17 in 10.0 mi NNW 3.5 mph - N/A   Scattered Clouds
6:35 AM 49.5 °F - 45.9 °F 87% 30.18 in 10.0 mi Calm Calm - N/A   Clear
6:55 AM 50.0 °F - 46.4 °F 87% 30.18 in 10.0 mi Calm Calm - N/A   Clear
7:15 AM 50.0 °F - 46.0 °F 86% 30.19 in 10.0 mi Calm Calm - N/A   Scattered Clouds
7:35 AM 50.4 °F - 46.2 °F 86% 30.18 in 10.0 mi Calm Calm - N/A   Mostly Cloudy
7:55 AM 50.9 °F - 46.0 °F 83% 30.18 in 10.0 mi Calm Calm - N/A   Overcast
8:15 AM 51.4 °F - 45.0 °F 79% 30.18 in 10.0 mi North 5.8 mph - N/A   Overcast
8:35 AM 52.0 °F - 44.1 °F 74% 30.18 in 10.0 mi North 6.9 mph - N/A   Scattered Clouds
8:55 AM 52.5 °F - 43.9 °F 72% 30.17 in 10.0 mi North 5.8 mph - N/A   Mostly Cloudy
9:15 AM 52.9 °F - 43.0 °F 69% 30.17 in 10.0 mi North 5.8 mph - N/A   Overcast
9:35 AM 52.9 °F - 42.8 °F 69% 30.16 in 10.0 mi North 4.6 mph - N/A   Mostly Cloudy
9:55 AM 54.7 °F - 43.7 °F 66% 30.16 in 10.0 mi North 3.5 mph - N/A   Mostly Cloudy
10:15 AM 55.4 °F - 44.6 °F 67% 30.16 in 10.0 mi NNE 9.2 mph - N/A   Mostly Cloudy
10:35 AM 55.2 °F - 42.1 °F 61% 30.16 in 10.0 mi NNE 6.9 mph - N/A   Mostly Cloudy
10:55 AM 55.4 °F - 43.0 °F 63% 30.16 in 10.0 mi NNE 4.6 mph - N/A   Overcast
11:15 AM 56.3 °F - 43.0 °F 61% 30.17 in 10.0 mi NE 4.6 mph - N/A   Overcast
11:35 AM 55.4 °F - 42.8 °F 63% 30.18 in 10.0 mi North 3.5 mph - N/A   Overcast
11:55 AM 56.1 °F - 42.1 °F 59% 30.16 in 10.0 mi North 3.5 mph - N/A   Mostly Cloudy
12:15 PM 56.5 °F - 42.1 °F 59% 30.16 in 10.0 mi North 4.6 mph - N/A   Scattered Clouds
12:35 PM 57.4 °F - 42.1 °F 57% 30.15 in 10.0 mi NE 5.8 mph - N/A   Scattered Clouds
12:55 PM 57.4 °F - 42.8 °F 58% 30.13 in 10.0 mi NNE 3.5 mph - N/A   Scattered Clouds
1:15 PM 57.2 °F - 41.7 °F 56% 30.13 in 10.0 mi NNE 4.6 mph - N/A   Mostly Cloudy
1:35 PM 57.4 °F - 41.5 °F 56% 30.13 in 10.0 mi Calm Calm - N/A   Mostly Cloudy
1:55 PM 57.4 °F - 41.2 °F 55% 30.13 in 10.0 mi North 3.5 mph - N/A   Scattered Clouds
2:15 PM 59.0 °F - 44.1 °F 58% 30.11 in 10.0 mi NNE 3.5 mph - N/A   Scattered Clouds
2:35 PM 57.9 °F - 42.8 °F 57% 30.10 in 10.0 mi NE 5.8 mph - N/A   Mostly Cloudy
2:55 PM 57.2 °F - 42.8 °F 59% 30.09 in 10.0 mi NE 5.8 mph - N/A   Mostly Cloudy
3:15 PM 56.5 °F - 43.0 °F 61% 30.07 in 10.0 mi NE 6.9 mph - N/A   Mostly Cloudy
3:35 PM 56.7 °F - 43.2 °F 61% 30.07 in 10.0 mi NE 6.9 mph - N/A   Scattered Clouds
3:55 PM 56.5 °F - 44.1 °F 63% 30.07 in 10.0 mi NNE 4.6 mph - N/A   Clear
4:15 PM 56.3 °F - 43.5 °F 62% 30.07 in 10.0 mi North 4.6 mph - N/A   Clear
4:35 PM 55.8 °F - 42.6 °F 61% 30.08 in 10.0 mi North 5.8 mph - N/A   Clear
4:55 PM 55.4 °F - 42.3 °F 61% 30.08 in 10.0 mi NNE 4.6 mph - N/A   Clear
5:15 PM 55.0 °F - 43.3 °F 65% 30.07 in 10.0 mi NNE 5.8 mph - N/A   Clear
5:35 PM 54.9 °F - 43.0 °F 64% 30.07 in 10.0 mi NNE 4.6 mph - N/A   Clear
5:55 PM 54.5 °F - 43.0 °F 65% 30.07 in 10.0 mi NNE 5.8 mph - N/A   Scattered Clouds
6:15 PM 54.0 °F - 42.4 °F 65% 30.06 in 10.0 mi NNE 8.1 mph - N/A   Scattered Clouds
6:35 PM 53.6 °F - 42.8 °F 67% 30.05 in 10.0 mi NE 4.6 mph - N/A   Scattered Clouds
6:55 PM 53.6 °F - 43.2 °F 68% 30.04 in 10.0 mi NE 5.8 mph - N/A Rain Light Rain
7:15 PM 53.2 °F - 43.3 °F 69% 30.03 in 10.0 mi NNE 6.9 mph - N/A   Mostly Cloudy
7:35 PM 53.6 °F - 42.8 °F 67% 30.04 in 10.0 mi North 4.6 mph - N/A   Overcast
7:55 PM 52.7 °F - 42.4 °F 68% 30.04 in 10.0 mi NNE 3.5 mph - N/A   Overcast
8:15 PM 52.3 °F - 42.4 °F 69% 30.03 in 10.0 mi North 4.6 mph - N/A Rain Light Rain
8:35 PM 51.8 °F - 42.8 °F 71% 30.01 in 10.0 mi NNE 4.6 mph - N/A Rain Light Rain
8:55 PM 50.5 °F - 42.8 °F 75% 29.99 in 10.0 mi NNE 5.8 mph - N/A Rain Light Rain
9:15 PM 50.2 °F - 41.9 °F 73% 29.99 in 10.0 mi NNE 6.9 mph - N/A Rain Light Rain
9:35 PM 50.0 °F - 42.4 °F 75% 29.99 in 10.0 mi NNE 5.8 mph - N/A Rain Light Rain
9:55 PM 49.1 °F - 43.5 °F 81% 30.01 in 10.0 mi North 5.8 mph - N/A Rain Rain
10:15 PM 48.2 °F - 43.7 °F 84% 30.01 in 7.0 mi North 5.8 mph - N/A Rain Rain
10:35 PM 47.7 °F - 43.9 °F 87% 30.02 in 7.0 mi North 8.1 mph - N/A Rain Rain
10:55 PM 46.4 °F 41.9 °F 42.8 °F 87% 30.03 in 7.0 mi NNE 9.2 mph - N/A Rain Rain
11:15 PM 45.7 °F 41.0 °F 44.1 °F 94% 30.03 in 7.0 mi NNE 9.2 mph - N/A Rain Rain
11:35 PM 45.7 °F 43.4 °F 45.7 °F 100% 30.02 in 7.0 mi North 4.6 mph - N/A Rain Heavy Rain
11:55 PM 45.9 °F 43.6 °F 45.9 °F 100% 30.01 in 7.0 mi North 4.6 mph - N/A Rain Rain